Location: *
(37.4917°N, 71.5558°E)
Time: 20:36:17
(UTC+00:00)

Cosmos 1606 Rocket - Pass Details

Date: 09 April 2020
Orbit: 602 x 633 km, 82.5° (Epoch: 31 May)

Event Time Altitude Azimuth Distance (km) Brightness Sun altitude
Rises 14:31:45 0° 184° (S) 2,885 6.8 -10.0°
Reaches altitude 10° 14:33:58 10° 184° (S) 1,988 6.0 -10.4°
Maximum altitude 14:38:23 85° 96° (E) 635 3.5 -11.3°
Drops below altitude 10° 14:42:52 10° 8° (N) 2,018 6.3 -12.1°
Sets 14:45:07 0° 8° (N) 2,932 7.2 -12.5°
